Time,TemperatureF,DewpointF,PressureIn,WindDirection,WindDirectionDegrees,WindSpeedMPH,WindSpeedGustMPH,Humidity,HourlyPrecipIn,Conditions,Clouds,dailyrainin,SoftwareType,DateUTC
2013-10-16 00:00:00,49.9,45.3,29.66,SW,218,1.0,4.0,84,0.00,RA,,0.00,WeatherDisplay:10.37,2013-10-16 05:00:00,
2013-10-16 00:05:00,49.9,45.3,29.66,SW,226,0.0,3.0,84,0.00,RA,,0.00,WeatherDisplay:10.37,2013-10-16 05:05:00,
2013-10-16 00:10:00,49.9,45.3,29.66,SW,229,1.0,12.0,84,0.00,CLR,,0.00,WeatherDisplay:10.37,2013-10-16 05:10:00,
2013-10-16 00:15:00,49.9,45.3,29.66,SW,228,2.0,5.0,84,0.00,CLR,,0.00,WeatherDisplay:10.37,2013-10-16 05:15:00,
2013-10-16 00:20:00,49.9,45.3,29.66,SSW,211,1.0,5.0,84,0.00,CLR,,0.00,WeatherDisplay:10.37,2013-10-16 05:20:00,
2013-10-16 00:25:00,49.9,45.3,29.66,SSW,208,0.0,4.0,84,0.00,CLR,,0.00,WeatherDisplay:10.37,2013-10-16 05:25:00,
2013-10-16 00:30:00,49.8,45.2,29.66,SSW,208,1.0,4.0,84,0.00,CLR,,0.00,WeatherDisplay:10.37,2013-10-16 05:30:00,
2013-10-16 00:35:00,49.8,45.2,29.66,SSW,205,0.0,3.0,84,0.00,CLR,,0.00,WeatherDisplay:10.37,2013-10-16 05:35:00,
2013-10-16 00:40:00,49.8,45.5,29.66,SW,224,1.0,7.0,85,0.00,CLR,,0.00,WeatherDisplay:10.37,2013-10-16 05:40:00,
2013-10-16 00:45:00,49.8,45.5,29.66,SW,231,1.0,7.0,85,0.00,CLR,,0.00,WeatherDisplay:10.37,2013-10-16 05:45:00,
2013-10-16 00:50:00,49.6,45.3,29.66,SW,230,1.0,5.0,85,0.00,CLR,,0.00,WeatherDisplay:10.37,2013-10-16 05:50:00,
2013-10-16 00:55:00,49.6,45.3,29.66,WSW,237,1.0,6.0,85,0.00,CLR,,0.00,WeatherDisplay:10.37,2013-10-16 05:55:00,
2013-10-16 01:00:00,49.6,45.3,29.66,SW,236,1.0,5.0,85,0.00,CLR,,0.00,WeatherDisplay:10.37,2013-10-16 06:00:00,
2013-10-16 01:05:00,49.6,45.3,29.66,WSW,254,1.0,4.0,85,0.00,CLR,,0.00,WeatherDisplay:10.37,2013-10-16 06:05:00,
2013-10-16 01:10:00,49.6,45.3,29.66,WSW,255,2.0,5.0,85,0.00,CLR,,0.00,WeatherDisplay:10.37,2013-10-16 06:10:00,
2013-10-16 01:15:00,49.5,45.5,29.66,WSW,248,1.0,4.0,86,0.00,CLR,,0.00,WeatherDisplay:10.37,2013-10-16 06:15:00,
2013-10-16 01:20:00,49.5,45.5,29.66,SW,224,0.0,6.0,86,0.00,CLR,,0.00,WeatherDisplay:10.37,2013-10-16 06:20:00,
2013-10-16 01:25:00,49.5,45.5,29.66,SSW,205,2.0,4.0,86,0.00,CLR,,0.00,WeatherDisplay:10.37,2013-10-16 06:25:00,
2013-10-16 01:30:00,49.5,45.8,29.66,SW,221,2.0,5.0,87,0.00,CLR,,0.00,WeatherDisplay:10.37,2013-10-16 06:30:00,
2013-10-16 01:35:00,49.4,45.7,29.66,SW,236,1.0,4.0,87,0.00,CLR,,0.00,WeatherDisplay:10.37,2013-10-16 06:35:00,
2013-10-16 01:40:00,49.4,45.7,29.66,SW,236,2.0,6.0,87,0.00,CLR,,0.00,WeatherDisplay:10.37,2013-10-16 06:40:00,
2013-10-16 01:45:00,49.4,45.7,29.66,SW,228,1.0,5.0,87,0.00,CLR,,0.00,WeatherDisplay:10.37,2013-10-16 06:45:00,
2013-10-16 01:50:00,49.4,46.0,29.66,SW,219,2.0,4.0,88,0.00,CLR,,0.00,WeatherDisplay:10.37,2013-10-16 06:50:00,
2013-10-16 01:55:00,49.4,46.0,29.66,SW,222,2.0,7.0,88,0.00,CLR,,0.00,WeatherDisplay:10.37,2013-10-16 06:55:00,
2013-10-16 02:00:00,49.2,45.8,29.66,SW,232,1.0,5.0,88,0.00,CLR,,0.00,WeatherDisplay:10.37,2013-10-16 07:00:00,
2013-10-16 02:05:00,49.2,45.8,29.66,SW,225,0.0,5.0,88,0.00,CLR,,0.00,WeatherDisplay:10.37,2013-10-16 07:05:00,
2013-10-16 02:10:00,49.2,46.1,29.66,SW,227,1.0,12.0,89,0.00,CLR,,0.00,WeatherDisplay:10.37,2013-10-16 07:10:00,
2013-10-16 02:15:00,49.2,46.1,29.66,SW,231,1.0,5.0,89,0.00,CLR,,0.00,WeatherDisplay:10.37,2013-10-16 07:15:00,
2013-10-16 02:20:00,49.2,46.1,29.66,WSW,241,1.0,7.0,89,0.00,CLR,,0.00,WeatherDisplay:10.37,2013-10-16 07:20:00,
2013-10-16 02:25:00,49.1,46.0,29.66,SW,232,1.0,5.0,89,0.00,CLR,,0.00,WeatherDisplay:10.37,2013-10-16 07:25:00,
2013-10-16 02:30:00,49.1,46.0,29.66,SSW,213,1.0,6.0,89,0.00,CLR,,0.00,WeatherDisplay:10.37,2013-10-16 07:30:00,
2013-10-16 02:35:00,49.1,46.3,29.66,SSW,208,1.0,7.0,90,0.00,CLR,,0.00,WeatherDisplay:10.37,2013-10-16 07:35:00,
2013-10-16 02:40:00,49.1,46.3,29.66,SSW,208,2.0,5.0,90,0.00,CLR,,0.00,WeatherDisplay:10.37,2013-10-16 07:40:00,
2013-10-16 02:45:00,49.1,46.3,29.66,SSW,209,1.0,5.0,90,0.00,CLR,,0.00,WeatherDisplay:10.37,2013-10-16 07:45:00,
2013-10-16 02:50:00,49.1,46.3,29.66,SSW,211,2.0,5.0,90,0.00,CLR,,0.00,WeatherDisplay:10.37,2013-10-16 07:50:00,
2013-10-16 02:55:00,49.1,46.3,29.66,SW,218,2.0,4.0,90,0.00,CLR,,0.00,WeatherDisplay:10.37,2013-10-16 07:55:00,
2013-10-16 03:00:00,49.2,46.4,29.66,SW,234,2.0,5.0,90,0.00,CLR,,0.00,WeatherDisplay:10.37,2013-10-16 08:00:00,
2013-10-16 03:05:00,49.2,46.4,29.65,SW,235,2.0,5.0,90,0.00,CLR,,0.00,WeatherDisplay:10.37,2013-10-16 08:05:00,
2013-10-16 03:10:00,49.2,46.7,29.65,SW,221,1.0,5.0,91,0.00,CLR,,0.00,WeatherDisplay:10.37,2013-10-16 08:10:00,
2013-10-16 03:15:00,49.2,46.7,29.65,SSW,207,0.0,4.0,91,0.00,CLR,,0.00,WeatherDisplay:10.37,2013-10-16 08:15:00,
2013-10-16 03:20:00,49.2,46.7,29.65,WSW,244,2.0,5.0,91,0.00,CLR,,0.00,WeatherDisplay:10.37,2013-10-16 08:20:00,
2013-10-16 03:25:00,49.1,46.6,29.65,West,259,1.0,5.0,91,0.00,CLR,,0.00,WeatherDisplay:10.37,2013-10-16 08:25:00,
2013-10-16 03:30:00,49.1,46.6,29.65,West,262,1.0,7.0,91,0.00,CLR,,0.00,WeatherDisplay:10.37,2013-10-16 08:30:00,
2013-10-16 03:35:00,49.1,46.6,29.65,WSW,247,1.0,7.0,91,0.00,CLR,,0.00,WeatherDisplay:10.37,2013-10-16 08:35:00,
2013-10-16 03:40:00,49.2,46.7,29.65,SW,229,1.0,7.0,91,0.00,CLR,,0.00,WeatherDisplay:10.37,2013-10-16 08:40:00,
2013-10-16 03:45:00,49.2,46.7,29.65,SSW,199,1.0,6.0,91,0.00,CLR,,0.00,WeatherDisplay:10.37,2013-10-16 08:45:00,
2013-10-16 03:50:00,49.2,46.7,29.65,SW,216,0.0,6.0,91,0.00,CLR,,0.00,WeatherDisplay:10.37,2013-10-16 08:50:00,
2013-10-16 03:55:00,49.2,46.7,29.65,SW,224,2.0,4.0,91,0.00,CLR,,0.00,WeatherDisplay:10.37,2013-10-16 08:55:00,
2013-10-16 04:00:00,49.2,46.7,29.65,SSW,212,1.0,5.0,91,0.00,CLR,,0.00,WeatherDisplay:10.37,2013-10-16 09:00:00,
2013-10-16 04:05:00,49.2,46.7,29.65,SW,224,1.0,3.0,91,0.00,CLR,,0.00,WeatherDisplay:10.37,2013-10-16 09:05:00,
2013-10-16 04:10:00,49.2,46.7,29.65,WSW,245,1.0,5.0,91,0.00,CLR,,0.00,WeatherDisplay:10.37,2013-10-16 09:10:00,
2013-10-16 04:15:00,49.2,46.7,29.65,SW,222,1.0,6.0,91,0.00,CLR,,0.00,WeatherDisplay:10.37,2013-10-16 09:15:00,
2013-10-16 04:20:00,49.2,46.7,29.65,SW,230,2.0,5.0,91,0.00,CLR,,0.00,WeatherDisplay:10.37,2013-10-16 09:20:00,
2013-10-16 04:25:00,49.2,46.7,29.65,SW,223,2.0,5.0,91,0.00,CLR,,0.00,WeatherDisplay:10.37,2013-10-16 09:25:00,
2013-10-16 04:30:00,49.2,47.0,29.65,WSW,240,1.0,4.0,92,0.00,CLR,,0.00,WeatherDisplay:10.37,2013-10-16 09:30:00,
2013-10-16 04:35:00,49.2,47.0,29.65,SW,217,0.0,6.0,92,0.00,CLR,,0.00,WeatherDisplay:10.37,2013-10-16 09:35:00,
2013-10-16 04:40:00,49.2,47.0,29.65,SSW,200,1.0,5.0,92,0.00,CLR,,0.00,WeatherDisplay:10.37,2013-10-16 09:40:00,
2013-10-16 04:45:00,49.2,47.0,29.65,SW,214,0.0,4.0,92,0.00,CLR,,0.00,WeatherDisplay:10.37,2013-10-16 09:45:00,
2013-10-16 04:50:00,49.2,47.0,29.65,SSW,213,1.0,4.0,92,0.00,CLR,,0.00,WeatherDisplay:10.37,2013-10-16 09:50:00,
2013-10-16 04:55:00,49.2,47.0,29.65,SW,215,0.0,5.0,92,0.00,CLR,,0.00,WeatherDisplay:10.37,2013-10-16 09:55:00,
2013-10-16 05:00:00,49.2,47.0,29.65,SW,222,2.0,4.0,92,0.00,CLR,,0.00,WeatherDisplay:10.37,2013-10-16 10:00:00,
2013-10-16 05:05:00,49.2,47.0,29.66,SW,224,0.0,4.0,92,0.00,CLR,,0.00,WeatherDisplay:10.37,2013-10-16 10:05:00,
2013-10-16 05:10:00,49.2,47.0,29.66,SW,227,2.0,4.0,92,0.00,CLR,,0.00,WeatherDisplay:10.37,2013-10-16 10:10:00,
2013-10-16 05:15:00,49.2,47.0,29.66,SW,230,1.0,4.0,92,0.00,CLR,,0.00,WeatherDisplay:10.37,2013-10-16 10:15:00,
2013-10-16 05:20:00,49.2,47.0,29.66,SW,219,1.0,6.0,92,0.00,CLR,,0.00,WeatherDisplay:10.37,2013-10-16 10:20:00,
2013-10-16 05:25:00,49.2,47.0,29.66,SSW,201,1.0,4.0,92,0.00,CLR,,0.00,WeatherDisplay:10.37,2013-10-16 10:25:00,
2013-10-16 05:30:00,49.1,47.2,29.66,SW,227,1.0,6.0,93,0.00,CLR,,0.00,WeatherDisplay:10.37,2013-10-16 10:30:00,
2013-10-16 05:35:00,49.1,47.2,29.66,WSW,247,1.0,5.0,93,0.00,CLR,,0.00,WeatherDisplay:10.37,2013-10-16 10:35:00,
2013-10-16 05:40:00,49.1,47.2,29.66,WSW,245,0.0,3.0,93,0.00,CLR,,0.00,WeatherDisplay:10.37,2013-10-16 10:40:00,
2013-10-16 05:45:00,49.1,47.2,29.66,SSW,207,1.0,5.0,93,0.00,CLR,,0.00,WeatherDisplay:10.37,2013-10-16 10:45:00,
2013-10-16 05:50:00,49.1,47.2,29.66,SW,220,1.0,5.0,93,0.00,CLR,,0.00,WeatherDisplay:10.37,2013-10-16 10:50:00,
2013-10-16 05:55:00,49.1,47.2,29.66,WSW,245,2.0,5.0,93,0.00,CLR,,0.00,WeatherDisplay:10.37,2013-10-16 10:55:00,
2013-10-16 06:00:00,49.1,47.2,29.66,WSW,238,0.0,5.0,93,0.00,CLR,,0.00,WeatherDisplay:10.37,2013-10-16 11:00:00,
2013-10-16 06:05:00,49.1,47.4,29.66,SW,235,1.0,7.0,94,0.00,CLR,,0.00,WeatherDisplay:10.37,2013-10-16 11:05:00,
2013-10-16 06:10:00,49.1,47.4,29.66,WSW,252,0.0,4.0,94,0.00,CLR,,0.00,WeatherDisplay:10.37,2013-10-16 11:10:00,
2013-10-16 06:15:00,49.1,47.4,29.66,SW,228,0.0,3.0,94,0.00,CLR,,0.00,WeatherDisplay:10.37,2013-10-16 11:15:00,
2013-10-16 06:20:00,49.1,47.4,29.66,SW,227,0.0,6.0,94,0.00,CLR,,0.00,WeatherDisplay:10.37,2013-10-16 11:20:00,
2013-10-16 06:25:00,49.1,47.4,29.66,SW,230,0.0,4.0,94,0.00,CLR,,0.00,WeatherDisplay:10.37,2013-10-16 11:25:00,
2013-10-16 06:30:00,49.1,47.4,29.66,WSW,238,1.0,3.0,94,0.00,CLR,,0.00,WeatherDisplay:10.37,2013-10-16 11:30:00,
2013-10-16 06:35:00,49.1,47.4,29.66,WSW,238,0.0,3.0,94,0.00,CLR,,0.00,WeatherDisplay:10.37,2013-10-16 11:35:00,
2013-10-16 06:40:00,49.1,47.4,29.66,WSW,238,0.0,1.0,94,0.00,CLR,,0.00,WeatherDisplay:10.37,2013-10-16 11:40:00,
2013-10-16 06:45:00,49.1,47.4,29.66,SW,233,0.0,3.0,94,0.00,CLR,,0.00,WeatherDisplay:10.37,2013-10-16 11:45:00,
2013-10-16 06:50:00,49.1,47.7,29.66,SW,227,1.0,4.0,95,0.00,CLR,,0.00,WeatherDisplay:10.37,2013-10-16 11:50:00,
2013-10-16 06:55:00,49.1,47.7,29.66,SW,232,0.0,3.0,95,0.00,CLR,,0.00,WeatherDisplay:10.37,2013-10-16 11:55:00,
2013-10-16 07:00:00,49.1,47.7,29.66,SW,235,0.0,3.0,95,0.00,CLR,,0.00,WeatherDisplay:10.37,2013-10-16 12:00:00,
2013-10-16 07:05:00,49.1,47.7,29.67,SW,235,0.0,4.0,95,0.00,CLR,,0.00,WeatherDisplay:10.37,2013-10-16 12:05:00,
2013-10-16 07:10:00,49.1,47.7,29.67,SW,234,0.0,2.0,95,0.00,CLR,,0.00,WeatherDisplay:10.37,2013-10-16 12:10:00,
2013-10-16 07:15:00,49.2,47.8,29.67,SW,233,1.0,3.0,95,0.00,CLR,,0.00,WeatherDisplay:10.37,2013-10-16 12:15:00,
2013-10-16 07:20:00,49.2,47.8,29.67,SW,232,0.0,3.0,95,0.00,CLR,,0.00,WeatherDisplay:10.37,2013-10-16 12:20:00,
2013-10-16 07:25:00,49.2,47.8,29.67,SW,232,1.0,3.0,95,0.00,CLR,,0.00,WeatherDisplay:10.37,2013-10-16 12:25:00,
2013-10-16 07:30:00,49.2,47.8,29.67,SW,234,0.0,3.0,95,0.00,CLR,,0.00,WeatherDisplay:10.37,2013-10-16 12:30:00,
2013-10-16 07:35:00,49.2,47.8,29.67,SW,236,0.0,3.0,95,0.00,CLR,,0.00,WeatherDisplay:10.37,2013-10-16 12:35:00,
2013-10-16 07:40:00,49.3,48.0,29.67,WSW,238,0.0,2.0,95,0.00,CLR,,0.00,WeatherDisplay:10.37,2013-10-16 12:40:00,
2013-10-16 07:45:00,49.4,48.0,29.67,WSW,245,1.0,4.0,95,0.00,CLR,,0.00,WeatherDisplay:10.37,2013-10-16 12:45:00,
2013-10-16 07:50:00,49.4,48.0,29.68,WSW,257,0.0,3.0,95,0.00,CLR,,0.00,WeatherDisplay:10.37,2013-10-16 12:50:00,
2013-10-16 07:55:00,49.4,48.0,29.68,West,276,0.0,2.0,95,0.00,CLR,,0.00,WeatherDisplay:10.37,2013-10-16 12:55:00,
2013-10-16 08:00:00,49.5,48.1,29.68,West,276,0.0,3.0,95,0.00,CLR,,0.00,WeatherDisplay:10.37,2013-10-16 13:00:00,
2013-10-16 08:05:00,49.5,48.1,29.68,West,267,1.0,3.0,95,0.00,CLR,,0.00,WeatherDisplay:10.37,2013-10-16 13:05:00,
2013-10-16 08:10:00,49.6,48.2,29.68,WSW,257,1.0,2.0,95,0.00,CLR,,0.00,WeatherDisplay:10.37,2013-10-16 13:10:00,
2013-10-16 08:15:00,49.7,48.4,29.68,WSW,253,0.0,2.0,95,0.00,CLR,,0.00,WeatherDisplay:10.37,2013-10-16 13:15:00,
2013-10-16 08:20:00,49.8,48.4,29.68,WSW,256,0.0,5.0,95,0.00,CLR,,0.00,WeatherDisplay:10.37,2013-10-16 13:20:00,
2013-10-16 08:25:00,49.8,48.4,29.68,WSW,257,0.0,3.0,95,0.00,CLR,,0.00,WeatherDisplay:10.37,2013-10-16 13:25:00,
2013-10-16 08:30:00,49.9,48.5,29.68,WSW,251,1.0,3.0,95,0.00,CLR,,0.00,WeatherDisplay:10.37,2013-10-16 13:30:00,
2013-10-16 08:35:00,49.9,48.5,29.69,SW,226,0.0,1.0,95,0.00,CLR,,0.00,WeatherDisplay:10.37,2013-10-16 13:35:00,
2013-10-16 08:40:00,49.9,48.5,29.69,SSW,213,0.0,3.0,95,0.00,CLR,,0.00,WeatherDisplay:10.37,2013-10-16 13:40:00,
2013-10-16 08:45:00,50.1,48.7,29.69,SW,225,1.0,3.0,95,0.00,CLR,,0.00,WeatherDisplay:10.37,2013-10-16 13:45:00,
2013-10-16 08:50:00,50.1,48.7,29.69,WSW,245,1.0,4.0,95,0.00,CLR,,0.00,WeatherDisplay:10.37,2013-10-16 13:50:00,
2013-10-16 08:55:00,50.2,48.8,29.69,WSW,245,1.0,6.0,95,0.00,CLR,,0.00,WeatherDisplay:10.37,2013-10-16 13:55:00,
2013-10-16 09:00:00,50.2,48.8,29.69,SW,235,0.0,4.0,95,0.00,CLR,,0.00,WeatherDisplay:10.37,2013-10-16 14:00:00,
2013-10-16 09:05:00,50.4,49.0,29.69,WSW,252,0.0,1.0,95,0.00,CLR,,0.00,WeatherDisplay:10.37,2013-10-16 14:05:00,
2013-10-16 09:10:00,50.4,49.0,29.69,SW,234,0.0,5.0,95,0.00,CLR,,0.00,WeatherDisplay:10.37,2013-10-16 14:10:00,
2013-10-16 09:15:00,50.2,48.8,29.69,West,267,0.0,3.0,95,0.00,CLR,,0.00,WeatherDisplay:10.37,2013-10-16 14:15:00,
2013-10-16 09:20:00,50.3,48.9,29.70,NW,316,0.0,3.0,95,0.00,CLR,,0.00,WeatherDisplay:10.37,2013-10-16 14:20:00,
2013-10-16 09:25:00,50.4,49.0,29.70,WNW,292,0.0,3.0,95,0.00,CLR,,0.00,WeatherDisplay:10.37,2013-10-16 14:25:00,
2013-10-16 09:30:00,50.6,49.2,29.70,WNW,299,0.0,2.0,95,0.00,CLR,,0.00,WeatherDisplay:10.37,2013-10-16 14:30:00,
2013-10-16 09:35:00,50.7,49.3,29.70,West,278,0.0,3.0,95,0.00,CLR,,0.00,WeatherDisplay:10.37,2013-10-16 14:35:00,
2013-10-16 09:40:00,50.8,49.4,29.70,West,268,0.0,3.0,95,0.00,CLR,,0.00,WeatherDisplay:10.37,2013-10-16 14:40:00,
2013-10-16 09:45:00,51.0,49.6,29.70,West,272,0.0,4.0,95,0.00,CLR,,0.00,WeatherDisplay:10.37,2013-10-16 14:45:00,
2013-10-16 09:50:00,51.1,49.7,29.70,West,273,0.0,3.0,95,0.00,CLR,,0.00,WeatherDisplay:10.37,2013-10-16 14:50:00,
2013-10-16 09:55:00,51.3,49.6,29.70,West,269,0.0,2.0,94,0.00,CLR,,0.00,WeatherDisplay:10.37,2013-10-16 14:55:00,
2013-10-16 10:00:00,51.5,49.8,29.70,WNW,284,1.0,3.0,94,0.00,CLR,,0.00,WeatherDisplay:10.37,2013-10-16 15:00:00,
2013-10-16 10:05:00,51.6,49.4,29.71,WNW,290,1.0,4.0,92,0.00,CLR,,0.00,WeatherDisplay:10.37,2013-10-16 15:05:00,
2013-10-16 10:10:00,51.9,49.9,29.71,WNW,286,0.0,3.0,93,0.00,CLR,,0.00,WeatherDisplay:10.37,2013-10-16 15:10:00,
2013-10-16 10:15:00,51.9,49.4,29.71,NW,310,0.0,4.0,91,0.00,CLR,,0.00,WeatherDisplay:10.37,2013-10-16 15:15:00,
2013-10-16 10:20:00,51.9,49.1,29.72,WSW,250,0.0,5.0,90,0.00,CLR,,0.00,WeatherDisplay:10.37,2013-10-16 15:20:00,
2013-10-16 10:25:00,51.9,49.1,29.72,WSW,242,0.0,4.0,90,0.00,CLR,,0.00,WeatherDisplay:10.37,2013-10-16 15:25:00,
2013-10-16 10:30:00,51.9,48.8,29.72,West,270,0.0,5.0,89,0.00,CLR,,0.00,WeatherDisplay:10.37,2013-10-16 15:30:00,
2013-10-16 10:35:00,51.9,48.8,29.72,WNW,297,0.0,2.0,89,0.00,CLR,,0.00,WeatherDisplay:10.37,2013-10-16 15:35:00,
2013-10-16 10:40:00,52.0,49.2,29.72,West,271,2.0,6.0,90,0.00,CLR,,0.00,WeatherDisplay:10.37,2013-10-16 15:40:00,
2013-10-16 10:45:00,52.0,49.2,29.72,WSW,258,1.0,6.0,90,0.00,CLR,,0.00,WeatherDisplay:10.37,2013-10-16 15:45:00,
2013-10-16 10:50:00,52.0,49.2,29.72,West,261,0.0,4.0,90,0.00,CLR,,0.00,WeatherDisplay:10.37,2013-10-16 15:50:00,
2013-10-16 10:55:00,52.2,49.4,29.72,WNW,301,0.0,3.0,90,0.00,CLR,,0.00,WeatherDisplay:10.37,2013-10-16 15:55:00,
2013-10-16 11:00:00,52.2,49.1,29.72,West,276,1.0,5.0,89,0.00,CLR,,0.00,WeatherDisplay:10.37,2013-10-16 16:00:00,
2013-10-16 11:05:00,52.2,48.8,29.72,WNW,283,2.0,5.0,88,0.00,CLR,,0.00,WeatherDisplay:10.37,2013-10-16 16:05:00,
2013-10-16 11:10:00,52.2,49.1,29.72,NW,304,0.0,2.0,89,0.00,CLR,,0.00,WeatherDisplay:10.37,2013-10-16 16:10:00,
2013-10-16 11:15:00,52.6,49.4,29.72,WNW,291,1.0,4.0,89,0.00,CLR,,0.00,WeatherDisplay:10.37,2013-10-16 16:15:00,
2013-10-16 11:20:00,52.9,49.4,29.72,NW,306,1.0,5.0,88,0.00,CLR,,0.00,WeatherDisplay:10.37,2013-10-16 16:20:00,
2013-10-16 11:25:00,52.8,49.0,29.72,NW,318,0.0,7.0,87,0.00,CLR,,0.00,WeatherDisplay:10.37,2013-10-16 16:25:00,
2013-10-16 11:30:00,53.2,49.4,29.72,NW,322,0.0,3.0,87,0.00,CLR,,0.00,WeatherDisplay:10.37,2013-10-16 16:30:00,
2013-10-16 11:35:00,53.5,49.4,29.72,NNW,334,0.0,5.0,86,0.00,CLR,,0.00,WeatherDisplay:10.37,2013-10-16 16:35:00,
2013-10-16 11:40:00,53.5,48.8,29.72,NNW,327,1.0,4.0,84,0.00,CLR,,0.00,WeatherDisplay:10.37,2013-10-16 16:40:00,
2013-10-16 11:45:00,53.2,48.5,29.72,NW,322,3.0,9.0,84,0.00,CLR,,0.00,WeatherDisplay:10.37,2013-10-16 16:45:00,
2013-10-16 11:50:00,52.8,48.7,29.72,NW,316,3.0,9.0,86,0.00,CLR,,0.00,WeatherDisplay:10.37,2013-10-16 16:50:00,
2013-10-16 11:55:00,52.9,49.4,29.72,WNW,301,1.0,8.0,88,0.00,CLR,,0.00,WeatherDisplay:10.37,2013-10-16 16:55:00,
2013-10-16 12:00:00,53.0,49.2,29.72,West,273,1.0,5.0,87,0.00,CLR,,0.00,WeatherDisplay:10.37,2013-10-16 17:00:00,
2013-10-16 12:05:00,53.1,49.6,29.73,WNW,293,1.0,5.0,88,0.00,CLR,,0.00,WeatherDisplay:10.37,2013-10-16 17:05:00,
2013-10-16 12:10:00,53.1,49.6,29.73,NW,322,1.0,3.0,88,0.00,CLR,,0.00,WeatherDisplay:10.37,2013-10-16 17:10:00,
2013-10-16 12:15:00,53.1,49.0,29.73,NW,312,0.0,3.0,86,0.00,CLR,,0.00,WeatherDisplay:10.37,2013-10-16 17:15:00,
2013-10-16 12:20:00,53.1,49.3,29.73,WNW,287,1.0,3.0,87,0.00,CLR,,0.00,WeatherDisplay:10.37,2013-10-16 17:20:00,
2013-10-16 12:25:00,53.1,49.0,29.73,WSW,240,0.0,5.0,86,0.00,CLR,,0.00,WeatherDisplay:10.37,2013-10-16 17:25:00,
2013-10-16 12:30:00,53.1,49.0,29.73,SW,230,0.0,5.0,86,0.00,CLR,,0.00,WeatherDisplay:10.37,2013-10-16 17:30:00,
2013-10-16 12:35:00,52.9,48.5,29.73,West,271,0.0,4.0,85,0.00,CLR,,0.00,WeatherDisplay:10.37,2013-10-16 17:35:00,
2013-10-16 12:40:00,52.9,48.8,29.73,NW,307,1.0,2.0,86,0.00,CLR,,0.00,WeatherDisplay:10.37,2013-10-16 17:40:00,
2013-10-16 12:45:00,52.8,48.7,29.73,NW,306,1.0,3.0,86,0.00,CLR,,0.00,WeatherDisplay:10.37,2013-10-16 17:45:00,
2013-10-16 12:50:00,52.8,48.7,29.73,WNW,282,1.0,4.0,86,0.00,CLR,,0.00,WeatherDisplay:10.37,2013-10-16 17:50:00,
2013-10-16 12:55:00,52.7,48.7,29.73,WNW,286,1.0,4.0,86,0.00,CLR,,0.00,WeatherDisplay:10.37,2013-10-16 17:55:00,
2013-10-16 13:00:00,52.6,48.6,29.73,NW,309,1.0,7.0,86,0.00,CLR,,0.00,WeatherDisplay:10.37,2013-10-16 18:00:00,
2013-10-16 13:05:00,52.3,48.6,29.73,NNW,337,1.0,5.0,87,0.00,CLR,,0.00,WeatherDisplay:10.37,2013-10-16 18:05:00,
2013-10-16 13:10:00,52.0,48.6,29.73,NNW,341,0.0,4.0,88,0.00,CLR,,0.00,WeatherDisplay:10.37,2013-10-16 18:10:00,
2013-10-16 13:15:00,52.0,48.6,29.73,NNW,336,1.0,4.0,88,0.00,CLR,,0.00,WeatherDisplay:10.37,2013-10-16 18:15:00,
2013-10-16 13:20:00,52.0,48.3,29.73,NW,324,1.0,3.0,87,0.00,CLR,,0.00,WeatherDisplay:10.37,2013-10-16 18:20:00,
2013-10-16 13:25:00,52.0,48.3,29.73,NW,307,0.0,2.0,87,0.00,CLR,,0.00,WeatherDisplay:10.37,2013-10-16 18:25:00,
2013-10-16 13:35:00,52.2,48.8,29.73,NNW,336,1.0,3.0,88,0.00,CLR,,0.00,WeatherDisplay:10.37,2013-10-16 18:35:00,
2013-10-16 13:40:00,52.2,48.8,29.73,NNW,336,0.0,2.0,88,0.00,CLR,,0.00,WeatherDisplay:10.37,2013-10-16 18:40:00,
2013-10-16 13:45:00,52.2,48.4,29.73,NNW,337,1.0,2.0,87,0.00,CLR,,0.00,WeatherDisplay:10.37,2013-10-16 18:45:00,
2013-10-16 13:50:00,52.2,48.8,29.73,NNW,338,0.0,2.0,88,0.00,CLR,,0.00,WeatherDisplay:10.37,2013-10-16 18:50:00,
2013-10-16 13:55:00,52.1,48.4,29.73,NNW,334,1.0,3.0,87,0.00,CLR,,0.00,WeatherDisplay:10.37,2013-10-16 18:55:00,
2013-10-16 14:00:00,52.0,48.3,29.73,NW,326,0.0,2.0,87,0.00,CLR,,0.00,WeatherDisplay:10.37,2013-10-16 19:00:00,
2013-10-16 14:05:00,52.0,48.6,29.73,NW,318,0.0,1.0,88,0.00,CLR,,0.00,WeatherDisplay:10.37,2013-10-16 19:05:00,
2013-10-16 14:10:00,52.0,48.3,29.73,NW,320,0.0,2.0,87,0.00,CLR,,0.00,WeatherDisplay:10.37,2013-10-16 19:10:00,
2013-10-16 14:15:00,52.0,48.6,29.73,NW,326,0.0,1.0,88,0.00,CLR,,0.00,WeatherDisplay:10.37,2013-10-16 19:15:00,
2013-10-16 14:20:00,52.0,48.6,29.73,NW,309,0.0,2.0,88,0.00,CLR,,0.00,WeatherDisplay:10.37,2013-10-16 19:20:00,
2013-10-16 14:25:00,51.9,48.8,29.73,WNW,291,0.0,3.0,89,0.00,CLR,,0.00,WeatherDisplay:10.37,2013-10-16 19:25:00,
2013-10-16 14:30:00,51.6,49.1,29.73,NW,307,0.0,3.0,91,0.00,CLR,,0.00,WeatherDisplay:10.37,2013-10-16 19:30:00,
2013-10-16 14:35:00,51.3,49.4,29.74,NW,312,0.0,2.0,93,0.00,CLR,,0.00,WeatherDisplay:10.37,2013-10-16 19:35:00,
2013-10-16 14:40:00,51.1,49.1,29.74,NW,304,0.0,1.0,93,0.00,CLR,,0.00,WeatherDisplay:10.37,2013-10-16 19:40:00,
2013-10-16 14:45:00,51.0,49.0,29.74,WNW,298,0.0,3.0,93,0.00,CLR,,0.00,WeatherDisplay:10.37,2013-10-16 19:45:00,
2013-10-16 14:50:00,50.8,49.2,29.74,West,278,0.0,2.0,94,0.00,CLR,,0.00,WeatherDisplay:10.37,2013-10-16 19:50:00,
2013-10-16 14:55:00,50.8,49.1,29.74,West,263,0.0,2.0,94,0.00,CLR,,0.00,WeatherDisplay:10.37,2013-10-16 19:55:00,
2013-10-16 15:00:00,50.8,48.8,29.74,West,281,0.0,2.0,93,0.00,CLR,,0.00,WeatherDisplay:10.37,2013-10-16 20:00:00,
2013-10-16 15:05:00,51.0,49.0,29.74,NW,307,0.0,3.0,93,0.00,CLR,,0.00,WeatherDisplay:10.37,2013-10-16 20:05:00,
2013-10-16 15:10:00,51.0,48.8,29.74,NW,311,0.0,2.0,92,0.00,CLR,,0.00,WeatherDisplay:10.37,2013-10-16 20:10:00,
2013-10-16 15:15:00,51.1,48.9,29.74,NW,323,0.0,3.0,92,0.00,CLR,,0.00,WeatherDisplay:10.37,2013-10-16 20:15:00,
2013-10-16 15:20:00,51.1,48.9,29.74,NNW,332,1.0,3.0,92,0.00,CLR,,0.00,WeatherDisplay:10.37,2013-10-16 20:20:00,
2013-10-16 15:25:00,51.1,48.3,29.74,NW,325,0.0,4.0,90,0.00,CLR,,0.00,WeatherDisplay:10.37,2013-10-16 20:25:00,
2013-10-16 15:30:00,51.4,48.3,29.74,NW,324,0.0,3.0,89,0.00,CLR,,0.00,WeatherDisplay:10.37,2013-10-16 20:30:00,
2013-10-16 15:35:00,51.6,48.4,29.74,NW,323,0.0,3.0,89,0.00,CLR,,0.00,WeatherDisplay:10.37,2013-10-16 20:35:00,
2013-10-16 15:40:00,51.4,48.3,29.74,NW,324,0.0,2.0,89,0.00,CLR,,0.00,WeatherDisplay:10.37,2013-10-16 20:40:00,
2013-10-16 15:45:00,51.6,48.5,29.74,NW,306,0.0,3.0,89,0.00,CLR,,0.00,WeatherDisplay:10.37,2013-10-16 20:45:00,
2013-10-16 15:50:00,51.4,48.3,29.74,WNW,283,1.0,3.0,89,0.00,CLR,,0.00,WeatherDisplay:10.37,2013-10-16 20:50:00,
2013-10-16 15:55:00,51.1,48.0,29.74,NNW,327,2.0,6.0,89,0.00,CLR,,0.00,WeatherDisplay:10.37,2013-10-16 20:55:00,
2013-10-16 16:00:00,51.0,47.9,29.74,NNW,338,0.0,3.0,89,0.00,CLR,,0.00,WeatherDisplay:10.37,2013-10-16 21:00:00,
2013-10-16 16:05:00,50.8,47.4,29.75,NNW,332,2.0,5.0,88,0.00,CLR,,0.00,WeatherDisplay:10.37,2013-10-16 21:05:00,
2013-10-16 16:10:00,50.7,47.3,29.75,NNW,335,1.0,6.0,88,0.00,CLR,,0.00,WeatherDisplay:10.37,2013-10-16 21:10:00,
2013-10-16 16:15:00,50.5,47.1,29.75,NNW,336,0.0,5.0,88,0.00,CLR,,0.00,WeatherDisplay:10.37,2013-10-16 21:15:00,
2013-10-16 16:20:00,50.5,47.4,29.75,NNW,334,0.0,0.0,89,0.00,CLR,,0.00,WeatherDisplay:10.37,2013-10-16 21:20:00,
2013-10-16 16:25:00,50.4,47.6,29.75,NNW,335,2.0,4.0,90,0.00,CLR,,0.00,WeatherDisplay:10.37,2013-10-16 21:25:00,
2013-10-16 16:30:00,50.5,47.3,29.75,NNW,336,0.0,2.0,89,0.00,CLR,,0.00,WeatherDisplay:10.37,2013-10-16 21:30:00,
2013-10-16 16:35:00,50.7,47.6,29.75,NW,318,0.0,2.0,89,0.00,CLR,,0.00,WeatherDisplay:10.37,2013-10-16 21:35:00,
2013-10-16 16:40:00,50.7,47.6,29.75,NW,310,0.0,2.0,89,0.00,CLR,,0.00,WeatherDisplay:10.37,2013-10-16 21:40:00,
2013-10-16 16:45:00,50.7,47.6,29.75,NW,308,0.0,1.0,89,0.00,CLR,,0.00,WeatherDisplay:10.37,2013-10-16 21:45:00,
2013-10-16 16:50:00,50.7,47.9,29.75,NW,310,0.0,3.0,90,0.00,CLR,,0.00,WeatherDisplay:10.37,2013-10-16 21:50:00,
2013-10-16 16:55:00,50.7,48.2,29.75,NNW,328,0.0,2.0,91,0.00,CLR,,0.00,WeatherDisplay:10.37,2013-10-16 21:55:00,
2013-10-16 17:05:00,50.2,48.0,29.75,NW,324,0.0,2.0,92,0.00,CLR,,0.00,WeatherDisplay:10.37,2013-10-16 22:05:00,
2013-10-16 17:10:00,50.1,47.9,29.75,NNW,335,0.0,2.0,92,0.00,CLR,,0.00,WeatherDisplay:10.37,2013-10-16 22:10:00,
2013-10-16 17:15:00,50.1,47.6,29.75,NNW,339,0.0,4.0,91,0.00,CLR,,0.00,WeatherDisplay:10.37,2013-10-16 22:15:00,
2013-10-16 17:20:00,50.1,47.6,29.75,NNW,338,1.0,3.0,91,0.00,CLR,,0.00,WeatherDisplay:10.37,2013-10-16 22:20:00,
2013-10-16 17:25:00,50.1,47.6,29.75,NNW,338,0.0,2.0,91,0.00,CLR,,0.00,WeatherDisplay:10.37,2013-10-16 22:25:00,
2013-10-16 17:30:00,50.2,47.7,29.75,NNW,332,0.0,2.0,91,0.00,CLR,,0.00,WeatherDisplay:10.37,2013-10-16 22:30:00,
2013-10-16 17:35:00,50.2,47.7,29.76,NNW,327,0.0,3.0,91,0.00,CLR,,0.00,WeatherDisplay:10.37,2013-10-16 22:35:00,
2013-10-16 17:40:00,50.2,47.7,29.76,NW,325,0.0,0.0,91,0.00,CLR,,0.00,WeatherDisplay:10.37,2013-10-16 22:40:00,
2013-10-16 17:45:00,50.4,47.9,29.76,NW,325,0.0,1.0,91,0.00,CLR,,0.00,WeatherDisplay:10.37,2013-10-16 22:45:00,
2013-10-16 17:50:00,50.4,47.9,29.76,NW,325,0.0,1.0,91,0.00,CLR,,0.00,WeatherDisplay:10.37,2013-10-16 22:50:00,
2013-10-16 17:55:00,50.3,47.8,29.76,NW,325,0.0,1.0,91,0.00,CLR,,0.00,WeatherDisplay:10.37,2013-10-16 22:55:00,
2013-10-16 18:00:00,50.2,48.0,29.76,NW,325,0.0,0.0,92,0.00,CLR,,0.00,WeatherDisplay:10.37,2013-10-16 23:00:00,
2013-10-16 18:05:00,50.2,48.0,29.77,NW,325,0.0,1.0,92,0.00,CLR,,0.00,WeatherDisplay:10.37,2013-10-16 23:05:00,
2013-10-16 18:10:00,50.2,48.0,29.77,NW,325,1.0,2.0,92,0.00,CLR,,0.00,WeatherDisplay:10.37,2013-10-16 23:10:00,
2013-10-16 18:15:00,50.2,47.7,29.77,NW,326,0.0,2.0,91,0.00,CLR,,0.00,WeatherDisplay:10.37,2013-10-16 23:15:00,
2013-10-16 18:20:00,50.2,47.7,29.77,NW,326,0.0,2.0,91,0.00,CLR,,0.00,WeatherDisplay:10.37,2013-10-16 23:20:00,
2013-10-16 18:25:00,50.2,47.7,29.77,NW,319,0.0,3.0,91,0.00,CLR,,0.00,WeatherDisplay:10.37,2013-10-16 23:25:00,
2013-10-16 18:30:00,50.1,47.9,29.77,NW,314,0.0,2.0,92,0.00,CLR,,0.00,WeatherDisplay:10.37,2013-10-16 23:30:00,
2013-10-16 18:35:00,50.1,47.9,29.77,NW,306,0.0,1.0,92,0.00,CLR,,0.00,WeatherDisplay:10.37,2013-10-16 23:35:00,
2013-10-16 18:45:00,49.8,47.9,29.77,NW,304,0.0,2.0,93,0.00,CLR,,0.00,WeatherDisplay:10.37,2013-10-16 23:45:00,
2013-10-16 18:50:00,49.8,47.9,29.78,WNW,302,0.0,1.0,93,0.00,CLR,,0.00,WeatherDisplay:10.37,2013-10-16 23:50:00,
2013-10-16 18:55:00,49.6,47.9,29.78,WNW,287,1.0,4.0,94,0.00,CLR,,0.00,WeatherDisplay:10.37,2013-10-16 23:55:00,
2013-10-16 19:00:00,49.6,47.9,29.78,West,280,0.0,3.0,94,0.00,CLR,,0.00,WeatherDisplay:10.37,2013-10-17 00:00:00,
2013-10-16 19:05:00,49.5,47.8,29.79,West,261,0.0,1.0,94,0.00,CLR,,0.00,WeatherDisplay:10.37,2013-10-17 00:05:00,
2013-10-16 19:10:00,49.5,47.8,29.79,WSW,246,0.0,0.0,94,0.00,CLR,,0.00,WeatherDisplay:10.37,2013-10-17 00:10:00,
2013-10-16 19:15:00,49.4,47.7,29.79,WSW,248,0.0,2.0,94,0.00,CLR,,0.00,WeatherDisplay:10.37,2013-10-17 00:15:00,
2013-10-16 19:20:00,49.4,47.5,29.79,WSW,254,0.0,2.0,93,0.00,CLR,,0.00,WeatherDisplay:10.37,2013-10-17 00:20:00,
2013-10-16 19:25:00,49.5,47.3,29.79,WNW,299,1.0,3.0,92,0.00,CLR,,0.00,WeatherDisplay:10.37,2013-10-17 00:25:00,
2013-10-16 19:30:00,49.5,47.3,29.79,NNW,340,0.0,2.0,92,0.00,CLR,,0.00,WeatherDisplay:10.37,2013-10-17 00:30:00,
2013-10-16 19:35:00,49.6,47.1,29.79,NW,326,1.0,2.0,91,0.00,CLR,,0.00,WeatherDisplay:10.37,2013-10-17 00:35:00,
2013-10-16 19:40:00,49.6,47.1,29.79,NW,318,0.0,2.0,91,0.00,CLR,,0.00,WeatherDisplay:10.37,2013-10-17 00:40:00,
2013-10-16 19:45:00,49.6,46.8,29.79,NNW,333,0.0,3.0,90,0.00,CLR,,0.00,WeatherDisplay:10.37,2013-10-17 00:45:00,
2013-10-16 19:50:00,49.6,46.8,29.79,NNW,333,0.0,0.0,90,0.00,CLR,,0.00,WeatherDisplay:10.37,2013-10-17 00:50:00,
2013-10-16 19:55:00,49.6,46.8,29.79,NNW,333,1.0,3.0,90,0.00,CLR,,0.00,WeatherDisplay:10.37,2013-10-17 00:55:00,
2013-10-16 20:00:00,49.6,46.8,29.79,NNW,334,1.0,4.0,90,0.00,CLR,,0.00,WeatherDisplay:10.37,2013-10-17 01:00:00,
2013-10-16 20:05:00,49.5,46.7,29.80,NNW,337,1.0,4.0,90,0.00,CLR,,0.00,WeatherDisplay:10.37,2013-10-17 01:05:00,
2013-10-16 20:10:00,49.5,46.7,29.80,NNW,339,0.0,2.0,90,0.00,CLR,,0.00,WeatherDisplay:10.37,2013-10-17 01:10:00,
2013-10-16 20:15:00,49.5,46.7,29.80,NNW,335,0.0,3.0,90,0.00,CLR,,0.00,WeatherDisplay:10.37,2013-10-17 01:15:00,
2013-10-16 20:20:00,49.4,46.6,29.80,NNW,339,1.0,4.0,90,0.00,CLR,,0.00,WeatherDisplay:10.37,2013-10-17 01:20:00,
2013-10-16 20:25:00,49.4,46.6,29.80,NNW,345,0.0,6.0,90,0.00,CLR,,0.00,WeatherDisplay:10.37,2013-10-17 01:25:00,
2013-10-16 20:30:00,49.2,46.4,29.80,NNW,345,0.0,3.0,90,0.00,CLR,,0.00,WeatherDisplay:10.37,2013-10-17 01:30:00,
2013-10-16 20:35:00,49.1,46.6,29.81,NNW,347,0.0,2.0,91,0.00,CLR,,0.00,WeatherDisplay:10.37,2013-10-17 01:35:00,
2013-10-16 20:40:00,48.9,46.4,29.81,NNW,346,0.0,3.0,91,0.00,CLR,,0.00,WeatherDisplay:10.37,2013-10-17 01:40:00,
2013-10-16 20:45:00,48.9,46.4,29.81,NNW,344,1.0,4.0,91,0.00,CLR,,0.00,WeatherDisplay:10.37,2013-10-17 01:45:00,
2013-10-16 20:50:00,48.8,46.6,29.81,NNW,342,0.0,1.0,92,0.00,CLR,,0.00,WeatherDisplay:10.37,2013-10-17 01:50:00,
2013-10-16 20:55:00,48.6,46.4,29.81,NNW,342,0.0,3.0,92,0.00,CLR,,0.00,WeatherDisplay:10.37,2013-10-17 01:55:00,
2013-10-16 21:00:00,48.6,46.4,29.81,NNW,342,1.0,5.0,92,0.00,CLR,,0.00,WeatherDisplay:10.37,2013-10-17 02:00:00,
2013-10-16 21:05:00,48.6,46.4,29.81,NNW,342,1.0,3.0,92,0.00,CLR,,0.00,WeatherDisplay:10.37,2013-10-17 02:05:00,
2013-10-16 21:10:00,48.6,46.4,29.81,NNW,338,0.0,6.0,92,0.00,CLR,,0.00,WeatherDisplay:10.37,2013-10-17 02:10:00,
2013-10-16 21:15:00,48.6,46.1,29.81,NNW,346,0.0,4.0,91,0.00,CLR,,0.00,WeatherDisplay:10.37,2013-10-17 02:15:00,
2013-10-16 21:20:00,48.6,46.1,29.82,NNW,344,0.0,4.0,91,0.00,CLR,,0.00,WeatherDisplay:10.37,2013-10-17 02:20:00,
2013-10-16 21:25:00,48.5,45.4,29.82,NNW,334,2.0,6.0,89,0.00,CLR,,0.00,WeatherDisplay:10.37,2013-10-17 02:25:00,
2013-10-16 21:30:00,48.5,45.1,29.82,NNW,339,1.0,4.0,88,0.00,CLR,,0.00,WeatherDisplay:10.37,2013-10-17 02:30:00,
2013-10-16 21:35:00,48.5,45.1,29.81,NNW,345,0.0,2.0,88,0.00,CLR,,0.00,WeatherDisplay:10.37,2013-10-17 02:35:00,
2013-10-16 21:40:00,48.5,44.8,29.81,NNW,344,1.0,4.0,87,0.00,CLR,,0.00,WeatherDisplay:10.37,2013-10-17 02:40:00,
2013-10-16 21:45:00,48.3,44.6,29.81,NNW,339,0.0,3.0,87,0.00,CLR,,0.00,WeatherDisplay:10.37,2013-10-17 02:45:00,
2013-10-16 21:50:00,48.3,44.3,29.81,NNW,334,2.0,4.0,86,0.00,CLR,,0.00,WeatherDisplay:10.37,2013-10-17 02:50:00,
2013-10-16 21:55:00,48.3,44.3,29.81,NNW,345,0.0,4.0,86,0.00,CLR,,0.00,WeatherDisplay:10.37,2013-10-17 02:55:00,
2013-10-16 22:00:00,48.2,44.2,29.81,North,360,1.0,3.0,86,0.00,CLR,,0.00,WeatherDisplay:10.37,2013-10-17 03:00:00,
2013-10-16 22:05:00,48.3,44.3,29.81,North,360,0.0,3.0,86,0.00,CLR,,0.00,WeatherDisplay:10.37,2013-10-17 03:05:00,
2013-10-16 22:10:00,48.3,44.0,29.81,NNW,335,0.0,2.0,85,0.00,CLR,,0.00,WeatherDisplay:10.37,2013-10-17 03:10:00,
2013-10-16 22:20:00,48.3,44.0,29.82,NW,305,0.0,2.0,85,0.00,CLR,,0.00,WeatherDisplay:10.37,2013-10-17 03:20:00,
2013-10-16 22:25:00,48.2,44.2,29.82,NW,308,0.0,1.0,86,0.00,CLR,,0.00,WeatherDisplay:10.37,2013-10-17 03:25:00,
2013-10-16 22:30:00,48.2,44.2,29.82,NW,309,0.0,1.0,86,0.00,CLR,,0.00,WeatherDisplay:10.37,2013-10-17 03:30:00,
2013-10-16 22:35:00,48.0,44.3,29.82,NW,309,0.0,0.0,87,0.00,CLR,,0.00,WeatherDisplay:10.37,2013-10-17 03:35:00,
2013-10-16 22:40:00,48.0,44.0,29.82,NW,309,1.0,3.0,86,0.00,CLR,,0.00,WeatherDisplay:10.37,2013-10-17 03:40:00,
2013-10-16 22:45:00,47.9,44.5,29.82,NW,309,1.0,3.0,88,0.00,CLR,,0.00,WeatherDisplay:10.37,2013-10-17 03:45:00,
2013-10-16 22:50:00,47.7,44.3,29.82,NW,309,0.0,1.0,88,0.00,CLR,,0.00,WeatherDisplay:10.37,2013-10-17 03:50:00,
2013-10-16 22:55:00,47.6,44.5,29.82,NW,309,0.0,0.0,89,0.00,CLR,,0.00,WeatherDisplay:10.37,2013-10-17 03:55:00,
2013-10-16 23:00:00,47.4,44.6,29.82,NW,309,0.0,0.0,90,0.00,CLR,,0.00,WeatherDisplay:10.37,2013-10-17 04:00:00,
2013-10-16 23:05:00,47.3,44.5,29.82,NW,309,0.0,0.0,90,0.00,CLR,,0.00,WeatherDisplay:10.37,2013-10-17 04:05:00,
2013-10-16 23:10:00,47.3,44.8,29.82,NW,309,0.0,0.0,91,0.00,CLR,,0.00,WeatherDisplay:10.37,2013-10-17 04:10:00,
2013-10-16 23:15:00,47.3,44.8,29.82,NW,309,0.0,0.0,91,0.00,CLR,,0.00,WeatherDisplay:10.37,2013-10-17 04:15:00,
2013-10-16 23:20:00,47.3,45.1,29.82,NW,309,0.0,0.0,92,0.00,CLR,,0.00,WeatherDisplay:10.37,2013-10-17 04:20:00,
2013-10-16 23:25:00,47.3,45.1,29.82,NW,308,0.0,0.0,92,0.00,CLR,,0.00,WeatherDisplay:10.37,2013-10-17 04:25:00,
2013-10-16 23:30:00,47.1,45.2,29.82,NW,309,0.0,0.0,93,0.00,CLR,,0.00,WeatherDisplay:10.37,2013-10-17 04:30:00,
2013-10-16 23:35:00,47.1,45.2,29.81,NW,308,0.0,0.0,93,0.00,CLR,,0.00,WeatherDisplay:10.37,2013-10-17 04:35:00,
2013-10-16 23:40:00,47.1,45.2,29.81,NW,309,0.0,0.0,93,0.00,CLR,,0.00,WeatherDisplay:10.37,2013-10-17 04:40:00,
2013-10-16 23:45:00,47.0,45.1,29.81,NW,309,0.0,0.0,93,0.00,CLR,,0.00,WeatherDisplay:10.37,2013-10-17 04:45:00,
2013-10-16 23:50:00,47.0,45.4,29.82,NW,309,0.0,0.0,94,0.00,CLR,,0.00,WeatherDisplay:10.37,2013-10-17 04:50:00,
2013-10-16 23:55:00,46.8,45.2,29.82,NW,309,0.0,0.0,94,0.00,CLR,,0.00,WeatherDisplay:10.37,2013-10-17 04:55:00,